TimeCST,TemperatureF,Dew PointF,Humidity,Sea Level PressureIn,VisibilityMPH,Wind Direction,Wind SpeedMPH,Gust SpeedMPH,PrecipitationIn,Events,Conditions,WindDirDegrees,DateUTC
12:15 AM,14.0,12.2,93,30.24,10.0,SE,3.5,-,N/A,,Clear,140,2013-03-08 06:15:00
12:35 AM,14.0,12.2,93,30.23,10.0,SE,5.8,-,N/A,,Clear,140,2013-03-08 06:35:00
12:54 AM,12.2,10.4,92,30.24,7.0,SE,5.8,-,N/A,,Clear,140,2013-03-08 06:54:00
1:15 AM,12.2,10.4,92,30.23,10.0,SE,9.2,-,N/A,,Mostly Cloudy,130,2013-03-08 07:15:00
1:34 AM,12.2,10.4,92,30.24,10.0,SE,6.9,-,N/A,,Overcast,140,2013-03-08 07:34:00
1:55 AM,12.2,10.4,92,30.24,7.0,SE,8.1,-,N/A,,Scattered Clouds,140,2013-03-08 07:55:00
2:14 AM,12.2,10.4,92,30.25,7.0,SSE,4.6,-,N/A,,Clear,150,2013-03-08 08:14:00
2:35 AM,14.0,10.4,86,30.24,7.0,SSE,5.8,-,N/A,,Clear,150,2013-03-08 08:35:00
2:55 AM,12.2,10.4,92,30.24,7.0,SSE,3.5,-,N/A,,Clear,160,2013-03-08 08:55:00
3:15 AM,10.4,8.6,92,30.23,7.0,SE,3.5,-,N/A,,Clear,140,2013-03-08 09:15:00
3:34 AM,10.4,8.6,92,30.23,7.0,SE,4.6,-,N/A,,Clear,140,2013-03-08 09:34:00
3:54 AM,8.6,8.6,100,30.22,7.0,SE,4.6,-,N/A,,Clear,140,2013-03-08 09:54:00
4:14 AM,10.4,8.6,92,30.23,7.0,SE,5.8,-,N/A,,Clear,140,2013-03-08 10:14:00
4:35 AM,10.4,10.4,100,30.23,7.0,SE,6.9,-,N/A,,Clear,140,2013-03-08 10:35:00
4:55 AM,8.6,6.8,92,30.24,7.0,SE,4.6,-,N/A,,Clear,130,2013-03-08 10:55:00
5:15 AM,6.8,5.0,92,30.24,7.0,SE,4.6,-,N/A,,Clear,130,2013-03-08 11:15:00
5:34 AM,8.6,6.8,92,30.24,7.0,SE,8.1,-,N/A,,Clear,140,2013-03-08 11:34:00
5:55 AM,6.8,5.0,92,30.24,7.0,SE,8.1,-,N/A,,Clear,130,2013-03-08 11:55:00
6:34 AM,8.6,6.8,92,30.25,5.0,Calm,Calm,-,N/A,,Clear,0,2013-03-08 12:34:00
6:54 AM,8.6,5.0,85,30.25,5.0,Calm,Calm,-,N/A,,Clear,0,2013-03-08 12:54:00
7:14 AM,8.6,6.8,92,30.25,5.0,Calm,Calm,-,N/A,,Clear,0,2013-03-08 13:14:00
7:35 AM,8.6,6.8,92,30.25,5.0,Calm,Calm,-,N/A,,Clear,0,2013-03-08 13:35:00
7:54 AM,10.4,8.6,92,30.25,5.0,Calm,Calm,-,N/A,,Clear,0,2013-03-08 13:54:00
8:14 AM,10.4,8.6,92,30.25,5.0,Calm,Calm,-,N/A,,Clear,0,2013-03-08 14:14:00
8:34 AM,10.4,8.6,92,30.25,4.0,Calm,Calm,-,N/A,,Clear,0,2013-03-08 14:34:00
8:54 AM,12.2,10.4,92,30.26,4.0,Calm,Calm,-,N/A,,Clear,0,2013-03-08 14:54:00
9:14 AM,12.2,10.4,92,30.25,4.0,ESE,3.5,-,N/A,,Clear,120,2013-03-08 15:14:00
9:34 AM,14.0,12.2,93,30.26,4.0,Calm,Calm,-,N/A,,Scattered Clouds,0,2013-03-08 15:34:00
9:54 AM,15.8,12.2,86,30.26,4.0,Calm,Calm,-,N/A,,Overcast,0,2013-03-08 15:54:00
10:14 AM,17.6,12.2,79,30.25,4.0,Calm,Calm,-,N/A,,Overcast,0,2013-03-08 16:14:00
10:34 AM,17.6,14.0,86,30.25,4.0,Calm,Calm,-,N/A,,Overcast,0,2013-03-08 16:34:00
10:55 AM,17.6,15.8,93,30.25,4.0,Calm,Calm,-,N/A,,Overcast,0,2013-03-08 16:55:00
11:15 AM,19.4,15.8,86,30.25,4.0,Calm,Calm,-,N/A,,Overcast,0,2013-03-08 17:15:00
11:35 AM,19.4,15.8,86,30.24,4.0,ESE,3.5,-,N/A,,Overcast,110,2013-03-08 17:35:00
11:55 AM,21.2,17.6,86,30.25,4.0,ESE,3.5,-,N/A,,Overcast,110,2013-03-08 17:55:00
12:15 PM,21.2,17.6,86,30.23,3.0,East,4.6,-,N/A,,Overcast,80,2013-03-08 18:15:00
12:34 PM,21.2,19.4,93,30.23,2.5,East,4.6,-,N/A,,Overcast,100,2013-03-08 18:34:00
12:54 PM,23.0,19.4,86,30.23,1.8,East,4.6,-,N/A,,Overcast,90,2013-03-08 18:54:00
1:15 PM,23.0,21.2,93,30.22,1.2,ENE,4.6,-,N/A,,Overcast,70,2013-03-08 19:15:00
1:35 PM,24.8,21.2,86,30.23,1.0,East,3.5,-,N/A,,Overcast,90,2013-03-08 19:35:00
1:54 PM,24.8,21.2,86,30.23,1.0,Calm,Calm,-,N/A,,Overcast,0,2013-03-08 19:54:00
2:15 PM,24.8,23.0,93,30.22,1.0,East,3.5,-,N/A,,Overcast,80,2013-03-08 20:15:00
2:34 PM,26.6,23.0,86,30.21,1.5,NNE,3.5,-,N/A,,Overcast,20,2013-03-08 20:34:00
2:55 PM,24.8,23.0,93,30.21,1.5,East,5.8,-,N/A,,Overcast,80,2013-03-08 20:55:00
3:14 PM,24.8,23.0,93,30.21,1.5,ENE,4.6,-,N/A,,Overcast,60,2013-03-08 21:14:00
3:34 PM,26.6,23.0,86,30.20,2.0,NE,5.8,-,N/A,,Mostly Cloudy,40,2013-03-08 21:34:00
3:54 PM,26.6,23.0,86,30.18,2.0,NE,6.9,-,N/A,,Clear,50,2013-03-08 21:54:00
4:15 PM,26.6,24.8,93,30.17,2.5,NE,5.8,-,N/A,,Clear,40,2013-03-08 22:15:00
4:34 PM,26.6,24.8,93,30.16,2.0,NNE,5.8,-,N/A,,Clear,30,2013-03-08 22:34:00
4:55 PM,26.6,23.0,86,30.17,2.5,ENE,4.6,-,N/A,,Clear,60,2013-03-08 22:55:00
5:14 PM,26.6,24.8,93,30.16,2.5,ENE,4.6,-,N/A,,Clear,60,2013-03-08 23:14:00
5:35 PM,26.6,24.8,93,30.15,3.0,NE,4.6,-,N/A,,Clear,40,2013-03-08 23:35:00
5:54 PM,26.6,24.8,93,30.15,4.0,ENE,4.6,-,N/A,,Clear,60,2013-03-08 23:54:00
6:14 PM,26.6,24.8,93,30.13,4.0,ENE,5.8,-,N/A,,Clear,60,2013-03-09 00:14:00
6:35 PM,24.8,21.2,86,30.13,4.0,East,5.8,-,N/A,,Clear,80,2013-03-09 00:35:00
6:54 PM,23.0,21.2,93,30.13,3.0,ENE,5.8,-,N/A,,Clear,70,2013-03-09 00:54:00
7:15 PM,24.8,21.2,86,30.13,4.0,East,5.8,-,N/A,,Clear,80,2013-03-09 01:15:00
7:35 PM,23.0,21.2,93,30.13,4.0,East,5.8,-,N/A,,Clear,100,2013-03-09 01:35:00
7:54 PM,24.8,21.2,86,30.12,4.0,East,8.1,-,N/A,,Clear,100,2013-03-09 01:54:00
8:14 PM,24.8,21.2,86,30.11,5.0,ESE,10.4,-,N/A,,Clear,110,2013-03-09 02:14:00
8:34 PM,26.6,23.0,86,30.10,5.0,East,11.5,-,N/A,,Scattered Clouds,100,2013-03-09 02:34:00
8:54 PM,26.6,24.8,93,30.07,4.0,East,13.8,-,N/A,Snow,Light Snow,100,2013-03-09 02:54:00
9:14 PM,30.2,26.6,86,30.07,4.0,ESE,13.8,-,0.02,Snow,Light Snow,110,2013-03-09 03:14:00
9:35 PM,30.2,28.4,93,30.06,4.0,East,15.0,-,0.04,Snow,Light Snow,100,2013-03-09 03:35:00
9:55 PM,30.2,28.4,93,30.06,3.0,ESE,11.5,-,0.10,Snow,Light Snow,110,2013-03-09 03:55:00
10:14 PM,30.2,28.4,93,30.05,2.5,ESE,8.1,-,0.06,Snow,Light Snow,110,2013-03-09 04:14:00
10:35 PM,30.2,28.4,93,30.04,2.5,ESE,8.1,-,0.12,Snow,Light Snow,110,2013-03-09 04:35:00
10:55 PM,30.2,30.2,100,30.02,2.5,East,6.9,-,0.18,Snow,Light Snow,100,2013-03-09 04:55:00
11:15 PM,32.0,30.2,93,30.02,2.0,ESE,3.5,-,0.10,Snow,Light Snow,110,2013-03-09 05:15:00
11:35 PM,32.0,30.2,93,30.03,1.8,Calm,Calm,-,0.26,Snow,Light Snow,0,2013-03-09 05:35:00
11:55 PM,32.0,30.2,93,30.02,2.0,Calm,Calm,-,0.34,Snow,Light Snow,0,2013-03-09 05:55:00